Location: D�derode
(51.8092°N, 10.1065°E)
Time: 05:47:19
(UTC+00:00)

SL-16 R/B - Pass Details

Date: 01 December 2020
Orbit: 985 x 1007 km, 99.5° (Epoch: 23 January)

Event Time Altitude Azimuth Distance (km) Brightness Sun altitude
Rises 15:39:35 0° 12° (NNE) 3,752 5.2 -4.4°
Reaches altitude 10° 15:42:21 10° 3° (N) 2,797 4.6 -4.7°
Maximum altitude 15:47:43 31° 304° (NW) 1,689 4.1 -5.4°
Drops below altitude 10° 15:53:04 10° 245° (WSW) 2,776 6.8 -6.2°
Sets 15:55:48 0° 235° (SW) 3,719 8.0 -6.5°
